This is the latest recevied weather packets stored in our database for station/object N5KR. If no packets are shown the sender has not sent any weather packets the latest 10 day(s).
| Time | Temp. | Humidity | Pressure | Rain* | Wind** | Luminosity | Snow |
|---|---|---|---|---|---|---|---|
| 1777618205 | 14.44° C | 83% | 1016.8 hPa | 0 mm | - | 0 W/m² | - |
| 1777617605 | 14.44° C | 82% | 1017.1 hPa | 0 mm | - | 0 W/m² | - |
| 1777617306 | 15° C | 81% | 1017.1 hPa | 0 mm | - | 0 W/m² | - |
| 1777615505 | 15° C | 80% | 1016.9 hPa | 0 mm | - | 0 W/m² | - |
| 1777613106 | 15° C | 80% | 1016.9 hPa | 0 mm | - | 0 W/m² | - |
| 1777611905 | 15° C | 79% | 1016.9 hPa | 0 mm | - | 0 W/m² | - |
| 1777609805 | 15° C | 83% | 1016.9 hPa | 0 mm | - | 0 W/m² | - |
| 1777608605 | 15° C | 82% | 1017 hPa | 0 mm | - | 0 W/m² | - |
| 1777605905 | 15.56° C | 81% | 1016.8 hPa | 0 mm | - | 0 W/m² | - |
| 1777605305 | 15.56° C | 82% | 1016.4 hPa | 0 mm | - | 0 W/m² | - |
| 1777605005 | 15.56° C | 81% | 1016.2 hPa | 0 mm | - | 0 W/m² | - |
| 1777604405 | 15.56° C | 81% | 1016.1 hPa | 0 mm | - | 0 W/m² | - |
| 1777602905 | 15.56° C | 80% | 1015.7 hPa | 0 mm | - | 0 W/m² | - |
| 1777602305 | 16.11° C | 78% | 1015.3 hPa | 0 mm | - | 0 W/m² | - |
| 1777601405 | 16.11° C | 74% | 1015.9 hPa | 0 mm | - | 0 W/m² | - |
| 1777598105 | 16.11° C | 73% | 1014.5 hPa | 0 mm | - | 0 W/m² | - |
| 1777596904 | 16.11° C | 73% | 1015 hPa | 0 mm | - | 0 W/m² | - |
| 1777595704 | 16.67° C | 73% | 1015 hPa | 0 mm | - | 0 W/m² | - |
| 1777594805 | 16.67° C | 72% | 1014.8 hPa | 0 mm | - | 8 W/m² | - |
| 1777594205 | 16.67° C | 71% | 1014.4 hPa | 0 mm | - | 8 W/m² | - |
| 1777593305 | 16.67° C | 71% | 1013.8 hPa | 0 mm | - | 16 W/m² | - |
| 1777591205 | 16.67° C | 71% | 1013.9 hPa | 0 mm | - | 35 W/m² | - |
| 1777584904 | 16.67° C | 74% | 1014.3 hPa | 0 mm | - | 38 W/m² | - |
| 1777582804 | 16.67° C | 74% | 1013.9 hPa | 0 mm | - | 121 W/m² | - |
| 1777581005 | 16.67° C | 74% | 1013.5 hPa | 0 mm | - | 111 W/m² | - |
* Rain latest hour (hover to see other rain measurements)
** Current wind speed in m/s (hover to see current wind gust speed)